Bundaberg Observation History
Time Wind Speed Temp Pressure Rel. Hum Rain
03/07:00am SW 9-13 kts 11.0°c 1021.8 hPa 50% 0.0mm
03/06:30am SW 8-11 kts 9.9°c 1021.5 hPa 53% 0.0mm
03/06:00am SW 1-4 kts 9.8°c 1021.4 hPa 52% 0.0mm
03/05:30am SW 8-12 kts 10.5°c 1021.0 hPa 50% 0.0mm
03/05:00am SW 6-8 kts 9.8°c 1021.0 hPa 50% 0.0mm
03/04:30am SW 8-13 kts 10.6°c 1020.7 hPa 48% 0.0mm
03/04:00am SW 9-10 kts 9.6°c 1020.6 hPa 51% 0.0mm
03/03:30am S 5-6 kts 9.8°c 1020.9 hPa 51% 0.0mm
03/03:00am SSW 7-9 kts 9.9°c 1020.9 hPa 50% 0.0mm
03/02:30am SSW 6-10 kts 10.6°c 1021.2 hPa 47% 0.0mm
03/02:00am SW 8-11 kts 10.7°c 1021.4 hPa 48% 0.0mm
03/01:30am WSW 4-6 kts 10.0°c 1021.8 hPa 50% 0.0mm
03/01:00am WSW 5-9 kts 10.2°c 1021.8 hPa 49% 0.0mm
03/12:30am SW 8-12 kts 11.3°c 1021.8 hPa 44% 0.0mm
03/12:00am SSW 8-12 kts 11.6°c 1021.9 hPa 42% 0.0mm
Time Wind Speed Temp Pressure Rel. Hum Rain
02/11:30pm SW 9-13 kts 12.3°c 1022.1 hPa 39% 0.0mm
02/11:00pm SW 7-11 kts 13.2°c 1022.2 hPa 36% 0.0mm
02/10:30pm SW 8-13 kts 13.5°c 1022.4 hPa 36% 0.0mm
02/10:00pm SW 7-9 kts 12.8°c 1022.6 hPa 38% 0.0mm
02/09:30pm SSW 6-8 kts 13.8°c 1022.6 hPa 34% 0.0mm
02/09:00pm SW 8-12 kts 14.9°c 1022.4 hPa 32% 0.0mm
02/08:30pm SW 8-10 kts 15.2°c 1022.0 hPa 32% 0.0mm
02/08:00pm SW 3-4 kts 14.6°c 1021.7 hPa 34% 0.0mm
02/07:59pm SW 3-4 kts 14.7°c 1021.7 hPa 34% 0.0mm
02/07:41pm SW 6-7 kts 15.2°c 1021.4 hPa 31% 0.0mm
02/07:30pm SW 5-6 kts 16.0°c 1021.2 hPa 29% 0.0mm
02/07:00pm SW 6-7 kts 16.8°c 1020.7 hPa 28% 0.0mm
02/06:30pm SW 6-9 kts 17.9°c 1020.1 hPa 26% 0.0mm
02/06:00pm SW 7-10 kts 18.3°c 1019.5 hPa 25% 0.0mm
02/05:30pm SSW 6-8 kts 18.7°c 1019.0 hPa 24% 0.0mm
02/05:00pm SSW 8-10 kts 19.8°c 1018.6 hPa 22% 0.0mm
02/04:30pm SW 8-13 kts 21.1°c 1018.2 hPa 21% 0.0mm
02/04:00pm WSW 9-13 kts 22.0°c 1018.0 hPa 19% 0.0mm
02/03:30pm WSW 10-15 kts 22.4°c 1017.9 hPa 20% 0.0mm
02/03:00pm WSW 9-13 kts 22.6°c 1017.7 hPa 21% 0.0mm
02/02:30pm WSW 10-13 kts 22.6°c 1017.7 hPa 23% 0.0mm
02/02:00pm SW 13-18 kts 22.4°c 1017.9 hPa 23% 0.0mm
02/01:30pm SW 12-18 kts 22.0°c 1018.2 hPa 23% 0.0mm
02/01:00pm SW 13-20 kts 21.9°c 1018.5 hPa 24% 0.0mm
02/12:30pm SW 14-19 kts 21.9°c 1018.6 hPa 25% 0.0mm
02/12:00pm SW 14-19 kts 21.9°c 1018.8 hPa 27% 0.0mm
02/11:30am SW 15-22 kts 20.9°c 1019.1 hPa 28% 0.0mm
02/11:00am SW 13-21 kts 20.7°c 1019.3 hPa 27% 0.0mm
02/10:30am SW 12-18 kts 20.0°c 1019.6 hPa 33% 0.0mm
02/10:00am SW 15-21 kts 19.3°c 1020.0 hPa 35% 0.0mm
02/09:30am SW 16-23 kts 18.6°c 1020.0 hPa 37% 0.0mm
02/09:00am SW 12-18 kts 18.3°c 1019.9 hPa 40% 0.0mm
02/08:30am SW 14-21 kts 17.7°c 1019.5 hPa 41% 0.0mm
02/08:00am SW 11-15 kts 17.5°c 1019.4 hPa 47% 0.0mm
02/07:30am SW 7-13 kts 17.1°c 1019.3 hPa 52% 0.0mm
02/07:00am SW 5-9 kts 16.4°c 1019.0 hPa 56% 0.0mm
02/06:30am SW 4-7 kts 16.5°c 1018.6 hPa 60% 0.0mm
02/06:00am SW 9-13 kts 17.3°c 1018.0 hPa 60% 0.0mm
02/05:30am SW 9-11 kts 17.5°c 1017.7 hPa 73% 0.0mm
02/05:00am SW 8-10 kts 17.9°c 1017.3 hPa 87% 0.0mm
02/04:30am W 8-10 kts 18.2°c 1016.7 hPa 91% 0.0mm
02/04:00am WSW 7-11 kts 18.2°c 1016.4 hPa 93% 0.0mm
02/03:30am WNW 7-9 kts 18.1°c 1016.0 hPa 93% 0.0mm
02/03:00am NW 7-8 kts 18.2°c 1015.7 hPa 95% 0.0mm
02/02:30am NNW 6-7 kts 17.9°c 1015.8 hPa 93% 0.0mm
02/02:00am NW 6-7 kts 18.2°c 1016.0 hPa 93% 0.0mm
02/01:30am WNW 7-9 kts 18.5°c 1016.2 hPa 94% 0.0mm
02/01:00am NW 6-7 kts 18.3°c 1016.3 hPa 94% 0.0mm
02/12:30am NW 5-7 kts 18.4°c 1016.5 hPa 95% 0.0mm
02/12:00am NW 6-7 kts 18.0°c 1016.6 hPa 96% 0.0mm
Time Wind Speed Temp Pressure Rel. Hum Rain
01/11:30pm NNW 5 kts 18.0°c 1016.6 hPa 95% 0.0mm
01/11:00pm NW 3-4 kts 17.8°c 1016.7 hPa 93% 0.0mm
01/10:30pm NNW 4-5 kts 18.2°c 1016.9 hPa 92% 0.0mm
01/10:00pm NW 5 kts 18.3°c 1017.1 hPa 90% 0.0mm
01/09:30pm NNW 6-7 kts 19.0°c 1016.9 hPa 88% 0.0mm
01/09:00pm N 7-8 kts 19.6°c 1016.8 hPa 86% 0.0mm
01/08:30pm N 6-7 kts 19.6°c 1016.9 hPa 87% 0.0mm
01/08:00pm N 6-7 kts 19.7°c 1017.0 hPa 88% 0.0mm
01/07:30pm N 5-6 kts 19.6°c 1017.0 hPa 87% 0.0mm
01/07:00pm NNE 4-5 kts 19.6°c 1016.9 hPa 86% 0.0mm
01/06:30pm NNE 6-7 kts 19.9°c 1016.7 hPa 85% 0.0mm
01/06:00pm NNE 7-9 kts 20.2°c 1016.4 hPa 83% 0.0mm
01/05:30pm NNE 7-9 kts 20.3°c 1016.2 hPa 82% 0.0mm
01/05:00pm NE 8-10 kts 20.3°c 1016.1 hPa 81% 0.0mm
01/04:45pm NE 7-10 kts 20.3°c 1016.1 hPa 81% 0.0mm
01/04:30pm NE 8-11 kts 20.3°c 1015.9 hPa 80% 0.0mm
01/04:26pm ENE 8-11 kts 20.4°c 1016.0 hPa 80% 0.0mm
01/04:00pm NE 9-12 kts 20.4°c 1015.7 hPa 79% 0.0mm
01/03:30pm ENE 10-12 kts 20.5°c 1015.6 hPa 78% 0.0mm
01/03:00pm ENE 11-14 kts 20.8°c 1015.4 hPa 76% 0.0mm
01/02:30pm NE 10-13 kts 21.9°c 1015.5 hPa 72% 0.0mm
01/02:00pm NE 11-14 kts 22.2°c 1015.7 hPa 68% 0.0mm
01/01:30pm ENE 9-12 kts 22.9°c 1015.8 hPa 66% 0.0mm
01/01:00pm ENE 8-13 kts 22.8°c 1016.1 hPa 66% 0.0mm
01/12:30pm NE 6-9 kts 22.6°c 1016.5 hPa 64% 0.0mm
01/12:00pm NE 5-10 kts 22.3°c 1017.1 hPa 66% 0.0mm
01/11:30am E 5-8 kts 22.4°c 1017.7 hPa 68% 0.0mm
01/11:04am E 4-7 kts 21.7°c 1018.2 hPa 73% 0.0mm
01/11:00am ESE 4-6 kts 21.5°c 1018.1 hPa 73% 0.0mm
01/10:49am E 5-7 kts 21.3°c 1018.5 hPa 75% 0.0mm
01/10:30am E 4-7 kts 20.8°c 1018.7 hPa 80% 0.0mm
01/10:00am SW 2-4 kts 19.2°c 1019.0 hPa 84% 0.0mm
01/09:30am SW 4-6 kts 18.7°c 1019.4 hPa 87% 0.0mm
01/09:00am SE 4-6 kts 18.6°c 1019.4 hPa 88% 0.2mm
01/08:30am CALM 0 kts 18.1°c 1019.3 hPa 92% 0.2mm
01/08:00am CALM 0-1 kts 17.5°c 1019.3 hPa 96% 0.2mm
01/07:30am WSW 3-4 kts 17.0°c 1019.2 hPa 98% 0.2mm
01/07:00am W 3-5 kts 16.7°c 1019.2 hPa 97% 0.2mm
01/06:30am NNW 8-13 kts 16.6°c 1019.0 hPa 97% 0.0mm
01/06:00am S 4-5 kts 16.3°c 1018.5 hPa 97% 0.0mm
01/05:30am SSW 4-5 kts 16.3°c 1018.0 hPa 98% 0.0mm
01/05:00am SSW 4-5 kts 15.9°c 1017.7 hPa 97% 0.0mm
01/04:30am S 4-6 kts 15.9°c 1017.6 hPa 97% 0.0mm
01/04:00am S 4-5 kts 16.2°c 1017.9 hPa 98% 0.0mm
01/03:30am SSW 4-5 kts 16.3°c 1017.8 hPa 98% 0.0mm
01/03:00am SSW 2-4 kts 15.9°c 1017.9 hPa 97% 0.0mm
01/02:30am SW 3-4 kts 15.6°c 1018.0 hPa 97% 0.0mm
01/02:00am SSW 4-5 kts 15.9°c 1018.0 hPa 97% 0.0mm
01/01:30am SSW 3-4 kts 15.8°c 1018.5 hPa 95% 0.0mm
01/01:00am S 5-7 kts 16.4°c 1018.7 hPa 95% 0.0mm
01/12:30am S 5-6 kts 16.5°c 1018.8 hPa 94% 0.0mm
01/12:00am S 4-6 kts 16.8°c 1019.0 hPa 94% 0.0mm